Бабадайхан

Туркменистан     37°41′24″N   60°23′33″E
В апреле 2022 года жителям России запретили посещать сайт meteo.paraplan.net по решению Генеральной прокуратуры. Аудитория сайта уменьшилась в 10 раз. Владельцы сайта не видят смысла в поддержке погодного сервера в таких условиях. Сайт будет закрыт в октябре.
темп.,
°C
ветер,
м/с
пор.,
м/с
влажн.,
%
обл.,
%
осадки,
мм/ч
давл.,
гПа
погр.,
м
4 октября, вт
вт423:00+19всв59210 0.0 1016123
02:00+17в47240 0.0 1015105
05:00+16в46260 0.0 101680
08:00+16в46260 0.0 1018140
11:00+24в45170 0.0 1018603
14:00+28всв44130 0.0 10171337
17:00+29св44130 0.0 10171461
20:00+24св57170 0.0 101994
5 октября, ср
ср523:00+21всв58170 0.0 1020116
02:00+19в47200 0.0 102089
05:00+17в45230 0.0 102158
08:00+17в46210 0.0 1022128
11:00+24в34120 0.0 1022576
14:00+27св4490 0.0 10201227
17:00+28св5560 0.0 10201323
20:00+22св4580 0.0 102155
6 октября, чт
чт623:00+18всв57110 0.0 102282
02:00+16всв56150 0.0 102174
05:00+14в33190 0.0 102224
08:00+14всв34200 0.0 102382
11:00+20всв33140 0.0 1022556
14:00+25св3390 0.0 10201082
17:00+26ссв4490 0.0 10191247
20:00+21ссв33130 0.0 102012
7 октября, пт
пт723:00+19св23160 0.0 102011
02:00+16св22190 0.0 101911
05:00+15всв22210 0.0 101911
08:00+16в22220 0.0 102011
11:00+22с11150 0.0 1020525
14:00+26с22110 0.0 10191155
17:00+27ссз3490 0.0 10181371
20:00+22св33130 0.0 101911
8 октября, сб
сб823:00+20зсз23140 0.0 102011
02:00+18сз22160 0.0 102011
05:00+16сз22180 0.0 102011
08:00+18с22180 0.0 102211
11:00+25ссз22110 0.0 1022541
14:00+28ссз44120 0.0 10211514
17:00+28с44120 0.0 10201758
20:00+23всв33150 0.0 102114